Le nostre stazioni meteo in Italia

Pubblicità
Il mio iltempo24.it
Pisa/S. Giusto, Italia (16158): Temperatura & dewpoint: 19.06.2019 20:00:00 - 25.06.2019 20:00:00 (CEST)Pisa/S. Giusto, Italia (16158): velocità del vento: 19.06.2019 20:00:00 - 25.06.2019 20:00:00 (CEST)Pisa/S. Giusto, Italia (16158): direzione del vento: 19.06.2019 20:00:00 - 25.06.2019 20:00:00 (CEST)Pisa/S. Giusto, Italia (16158): reduced air pressure: 19.06.2019 20:00:00 - 25.06.2019 20:00:00 (CEST)Pisa/S. Giusto, Italia (16158): visibility: 19.06.2019 20:00:00 - 25.06.2019 20:00:00 (CEST)Pisa/S. Giusto, Italia (16158): ore di luce: 19.06.2019 20:00:00 - 25.06.2019 20:00:00 (CEST)
Data & Tempo tt [°C] td [°C] ff [km/h] ff [kn] dd ppp [hPa] vv [km] sd [min]
25.06.2019 20:00:00 29,6 17,4 15 8 NO 1020,4 10 60
25.06.2019 19:00:00 30,0 17,0 13 7 NO - 10 -
25.06.2019 18:00:00 31,0 17,0 18 10 NO - 10 -
25.06.2019 17:00:00 31,8 18,0 22 12 NNO 1020,5 10 60
25.06.2019 16:00:00 32,0 18,0 18 10 NO - 10 -
25.06.2019 15:00:00 33,0 18,0 21 11 ONO - 10 -
25.06.2019 14:00:00 33,0 16,4 15 8 NO 1020,9 10 60
25.06.2019 13:00:00 33,0 16,0 13 7 NO - 10 -
25.06.2019 12:00:00 32,0 16,0 8 4 - - 10 -
25.06.2019 11:00:00 29,8 17,3 8 4 - 1021,1 10 60
25.06.2019 10:00:00 29,0 18,0 4 2 - - 10 -
25.06.2019 09:00:00 26,0 18,0 2 1 - - 10 -
25.06.2019 08:00:00 23,0 18,3 8 4 E 1020,6 10 30
25.06.2019 07:00:00 22,0 18,0 5 3 ESE - 10 -
25.06.2019 06:00:00 20,0 16,0 4 2 SSO - 10 -
25.06.2019 05:00:00 20,0 15,4 9 5 NE 1019,9 10 -
25.06.2019 04:00:00 19,0 15,0 15 8 SE - 10 -
25.06.2019 03:00:00 19,0 16,0 15 8 ESE - 10 -
25.06.2019 02:00:00 20,4 17,6 4 2 E 1019,9 10 -
25.06.2019 01:00:00 21,0 18,0 4 2 NE - 10 -
25.06.2019 00:00:00 22,0 19,0 4 2 SE - 10 -
24.06.2019 23:00:00 25,0 16,7 4 2 NNO 1019,7 10 -
24.06.2019 22:00:00 25,0 15,0 11 6 NNO - 10 -
24.06.2019 21:00:00 27,0 16,0 8 4 OSO - 10 -
24.06.2019 20:00:00 29,4 14,4 8 4 O 1018,0 10 60
24.06.2019 19:00:00 30,0 15,0 16 9 NNO - 10 -
24.06.2019 18:00:00 30,0 15,0 21 11 ONO - 10 -
24.06.2019 17:00:00 31,4 16,6 21 11 NO 1017,7 10 60
24.06.2019 16:00:00 32,0 17,0 21 11 NO - 10 -
24.06.2019 15:00:00 32,0 19,0 18 10 NO - 10 -
24.06.2019 14:00:00 31,8 15,3 9 5 NNO 1018,0 10 60
24.06.2019 13:00:00 31,0 16,0 5 3 - - 10 -
24.06.2019 12:00:00 30,0 16,0 5 3 ENE - 10 -
24.06.2019 11:00:00 28,0 18,4 8 4 ENE 1018,8 10 60
24.06.2019 10:00:00 26,0 19,0 4 2 E - 10 -
24.06.2019 09:00:00 23,0 19,0 5 3 SE - 10 -
24.06.2019 08:00:00 19,6 18,6 9 5 ESE 1018,2 10 60
24.06.2019 07:00:00 18,0 18,0 9 5 ESE - 10 -
24.06.2019 06:00:00 16,0 16,0 9 5 ESE - 10 -
24.06.2019 05:00:00 16,8 16,5 5 3 ESE 1018,0 10 -
24.06.2019 04:00:00 17,0 17,0 8 4 SE - 10 -
24.06.2019 03:00:00 18,0 17,0 4 2 S - 10 -
24.06.2019 02:00:00 18,4 18,1 4 2 OSO 1018,0 10 -
24.06.2019 01:00:00 19,0 18,0 2 1 SE - 10 -
24.06.2019 00:00:00 19,0 19,0 4 2 OSO - 10 -
23.06.2019 23:00:00 21,4 19,9 2 1 SSE 1016,6 10 -
23.06.2019 22:00:00 21,0 20,0 8 4 O - 10 -
23.06.2019 21:00:00 23,0 20,0 8 4 NO - 10 -
23.06.2019 20:00:00 25,0 17,7 11 6 NO 1015,9 10 60
23.06.2019 19:00:00 25,0 18,0 13 7 O - 10 -
23.06.2019 18:00:00 26,0 18,0 18 10 O - 10 -
23.06.2019 17:00:00 26,0 17,6 18 10 O 1016,3 10 60
23.06.2019 16:00:00 27,0 18,0 21 11 O - 10 -
23.06.2019 15:00:00 26,0 19,0 22 12 O - 10 -
23.06.2019 14:00:00 27,0 18,8 22 12 O 1016,3 10 60
23.06.2019 13:00:00 26,0 15,0 24 13 O - 10 -
23.06.2019 12:00:00 26,0 19,0 18 10 O - 10 -
23.06.2019 11:00:00 25,0 19,2 5 3 NE 1014,9 10 60
23.06.2019 10:00:00 24,0 20,0 8 4 E - 10 -
23.06.2019 09:00:00 22,0 20,0 8 4 SE - 10 -
23.06.2019 08:00:00 20,0 19,4 11 6 ESE 1014,7 10 12
23.06.2019 07:00:00 18,0 18,0 11 6 ESE - 10 -
23.06.2019 06:00:00 17,0 17,0 5 3 E - 10 -
23.06.2019 05:00:00 18,0 18,0 8 4 SE 1013,8 10 -
23.06.2019 04:00:00 18,0 18,0 11 6 ESE - 10 -
23.06.2019 03:00:00 18,0 18,0 9 5 ESE - 10 -
23.06.2019 02:00:00 18,6 18,4 9 5 ESE 1013,9 10 -
23.06.2019 01:00:00 19,0 18,0 9 5 SSE - 10 -
23.06.2019 00:00:00 19,0 19,0 2 1 SE - 10 -
22.06.2019 23:00:00 20,4 20,1 5 3 E 1013,2 10 -
22.06.2019 22:00:00 21,0 21,0 9 5 SSO - 10 -
22.06.2019 21:00:00 23,0 21,0 5 3 OSO - 10 -
22.06.2019 20:00:00 25,0 22,7 16 9 ONO 1012,7 10 48
22.06.2019 19:00:00 25,0 22,0 15 8 O - 10 -
22.06.2019 18:00:00 26,0 22,0 18 10 O - 10 -
22.06.2019 17:00:00 27,0 22,8 9 5 O 1012,9 10 24
22.06.2019 16:00:00 28,0 23,0 21 11 OSO - 10 -
22.06.2019 15:00:00 28,0 23,0 18 10 OSO - 10 -
22.06.2019 14:00:00 28,6 19,3 18 10 OSO 1013,7 10 60
22.06.2019 13:00:00 28,0 19,0 8 4 SSO - 10 -
22.06.2019 12:00:00 28,0 17,0 11 6 ESE - 10 -
22.06.2019 11:00:00 24,8 17,3 18 10 ESE 1014,4 10 0
22.06.2019 10:00:00 25,0 18,0 11 6 ESE - 10 -
22.06.2019 09:00:00 24,0 18,0 8 4 SE - 10 -
22.06.2019 08:00:00 19,6 17,5 8 4 NNE 1014,7 10 -
22.06.2019 07:00:00 19,0 18,0 5 3 E - 10 -
22.06.2019 06:00:00 19,0 18,0 8 4 ESE - 10 -
22.06.2019 05:00:00 19,0 17,8 13 7 E 1013,7 10 -
22.06.2019 04:00:00 19,0 17,0 9 5 E - 10 -
22.06.2019 03:00:00 20,0 18,0 5 3 E - 10 -
22.06.2019 02:00:00 19,6 17,5 4 2 - 1015,7 10 -
22.06.2019 01:00:00 20,0 19,0 5 3 - - 10 -
22.06.2019 00:00:00 21,0 18,0 5 3 - - 10 -
21.06.2019 23:00:00 22,6 16,4 4 2 - 1015,5 10 -
21.06.2019 22:00:00 23,0 17,0 4 2 - - 10 -
21.06.2019 21:00:00 25,0 19,0 5 3 - - 10 -
21.06.2019 20:00:00 28,0 16,0 13 7 O 1013,6 10 36
21.06.2019 19:00:00 29,0 15,0 4 2 SSO - 10 -
21.06.2019 18:00:00 29,0 15,0 8 4 NNE - 10 -
21.06.2019 17:00:00 27,8 15,1 16 9 SO 1015,0 10 42
21.06.2019 16:00:00 29,0 16,0 18 10 SO - 10 -
21.06.2019 15:00:00 29,0 19,0 16 9 ONO - 10 -
21.06.2019 14:00:00 29,0 16,9 9 5 SO 1015,5 10 60
21.06.2019 13:00:00 29,0 16,0 13 7 SO - 10 -
21.06.2019 12:00:00 28,0 15,0 9 5 ESE - 10 -
21.06.2019 11:00:00 26,0 15,4 9 5 ESE 1015,8 10 60
21.06.2019 10:00:00 25,0 16,0 16 9 E - 10 -
21.06.2019 09:00:00 23,0 17,0 8 4 ESE - 10 -
21.06.2019 08:00:00 18,0 16,7 9 5 ESE 1015,8 10 30
21.06.2019 07:00:00 17,0 17,0 5 3 SE - 10 -
21.06.2019 06:00:00 16,0 16,0 8 4 ESE - 10 -
21.06.2019 05:00:00 16,0 16,0 8 4 ESE 1015,3 10 -
21.06.2019 04:00:00 16,0 16,0 8 4 ESE - 10 -
21.06.2019 03:00:00 15,0 15,0 4 2 SE - 10 -
21.06.2019 02:00:00 17,4 15,6 5 3 ENE 1015,3 10 -
21.06.2019 01:00:00 18,0 16,0 4 2 E - 10 -
21.06.2019 00:00:00 19,0 17,0 5 3 SE - 10 -
20.06.2019 23:00:00 19,4 17,2 8 4 SSO 1014,7 10 -
20.06.2019 22:00:00 21,0 19,0 4 2 SO - 10 -
20.06.2019 21:00:00 24,0 16,0 5 3 ONO - 10 -
20.06.2019 20:00:00 26,4 14,5 8 4 O 1013,7 10 60
20.06.2019 19:00:00 27,0 15,0 9 5 ONO - 10 -
20.06.2019 18:00:00 27,0 14,0 11 6 O - 10 -
20.06.2019 17:00:00 27,6 13,2 13 7 O 1014,0 10 60
20.06.2019 16:00:00 28,0 14,0 13 7 O - 10 -
20.06.2019 15:00:00 28,0 14,0 15 8 O - 10 -
20.06.2019 14:00:00 27,6 14,6 16 9 ONO 1014,8 10 60
20.06.2019 13:00:00 28,0 15,0 15 8 O - 10 -
20.06.2019 12:00:00 28,0 13,0 9 5 OSO - 10 -
20.06.2019 11:00:00 25,2 14,7 4 2 - 1014,8 10 60
20.06.2019 10:00:00 24,0 16,0 8 4 E - 10 -
20.06.2019 09:00:00 22,0 15,0 8 4 ESE - 10 -
20.06.2019 08:00:00 16,6 15,5 9 5 ESE 1014,8 10 30
20.06.2019 07:00:00 15,0 15,0 8 4 ESE - 10 -
20.06.2019 06:00:00 14,0 13,0 5 3 ESE - 10 -
20.06.2019 05:00:00 14,0 13,7 8 4 SE 1014,7 10 -
20.06.2019 04:00:00 14,0 13,0 5 3 SE - 10 -
20.06.2019 03:00:00 15,0 14,0 9 5 ESE - 10 -
20.06.2019 02:00:00 15,8 15,0 5 3 SE 1014,8 10 -
20.06.2019 01:00:00 16,0 16,0 5 3 E - 10 -
20.06.2019 00:00:00 17,0 16,0 9 5 SE - 10 -
19.06.2019 23:00:00 19,0 17,8 4 2 SO 1014,5 10 -
19.06.2019 22:00:00 20,0 18,0 4 2 S - 10 -
19.06.2019 21:00:00 22,0 20,0 8 4 OSO - 10 -
19.06.2019 20:00:00 24,4 16,9 11 6 O 1013,9 10 60

tt = Temperatura
td = dewpoint
ff = velocità del vento
dd = direzione del vento
ppp = reduced air pressure
vv = visibility
sd = ore di luce

Stazioni seguenti

WeatherPro
AMSI
MeteoEarth